Wind_Speed
5 4 3 5 6 7 7 6 6 5 7 8 6 4 4 4 3 3 3 5 1 2 4 3 4 8 10 10 16 23 17 13 19 21 24 25 24 25 24 25 25 25 26 23 21 21 21 21 22 22 23 23 23 24 24 25 26 25 24 25 25 24 24 25 26 26 26 27 27 28 28 29 28 27 27 29 30 30 30 29 25 26 26 23 21 21
4 5 6 6 7 7 6 6 8 7 7 6 6 5 2 3 3 2 2 4 3 1 3 3 5 9 11 9 15 20 13 12 19 20 23 26 26 27 26 27 27 27 27 27 26 25 25 25 25 25 25 25 26 25 25 26 25 24 24 24 23 23 24 25 25 25 26 25 26 26 26 26 25 25 25 23 24 23 24 25 25 27 26 24 26 25
2 4 6 5 7 8 6 6 8 7 7 5 4 5 2 2 3 3 2 4 4 1 3 4 5 10 11 9 13 18 15 17 23 23 25 27 28 30 29 28 28 28 29 28 28 27 27 28 28 30 30 30 30 29 28 28 27 26 26 25 23 23 24 23 23 24 24 23 23 24 25 25 25 24 23 22 22 22 24 26 28 31 29 25 25 26
4 4 5 7 10 10 6 4 8 7 5 4 4 5 2 2 2 2 2 3 3 2 1 2 3 8 9 6 10 14 16 19 23 25 28 29 32 33 31 31 31 31 30 28 27 26 26 28 30 32 32 32 32 31 31 30 30 29 27 25 23 22 22 22 22 22 21 21 22 23 24 24 25 25 24 23 25 25 25 27 29 30 30 27 27 25
4 3 3 9 7 8 7 4 6 6 2 0 3 5 3 3 4 3 1 2 2 2 2 2 4 6 5 5 7 6 6 11 14 17 23 26 29 30 29 30 30 27 25 22 21 20 21 25 29 31 32 32 32 32 31 30 29 28 26 24 23 22 21 21 21 20 20 21 22 23 24 25 26 27 27 27 29 28 26 26 26 26 28 32 32 28
3 2 6 9 4 6 8 4 5 7 4 2 4 6 6 7 6 2 1 3 3 3 3 4 3 5 4 5 7 5 5 7 7 9 17 19 18 19 21 22 21 21 20 19 17 14 16 20 23 26 29 31 32 32 31 29 28 27 26 24 23 22 21 20 20 19 20 21 21 22 23 24 25 27 28 27 27 27 25 23 23 24 27 31 30 29
1 1 5 7 6 6 6 3 5 6 6 3 4 5 7 7 8 6 4 4 2 1 2 3 2 4 6 6 7 5 7 10 9 9 16 18 14 14 16 17 19 19 19 18 16 12 11 15 17 20 22 25 27 27 28 28 28 27 26 25 24 22 21 20 19 19 19 20 20 20 21 21 22 24 24 22 22 22 22 21 21 23 25 25 25 27
2 3 4 6 6 6 5 4 5 7 7 3 3 6 9 8 8 7 6 4 2 2 3 4 3 2 5 6 6 5 6 9 9 8 12 14 13 13 14 16 19 21 20 18 17 14 12 13 15 16 18 20 20 21 24 26 27 26 25 24 23 22 21 20 19 18 18 18 18 18 18 19 20 20 20 19 20 20 20 21 21 22 22 22 22 24
3 5 5 6 5 4 5 4 5 9 6 3 3 6 7 7 7 5 6 3 1 1 3 4 2 1 6 7 5 5 4 7 10 10 11 13 13 12 12 13 16 20 20 17 16 17 17 16 16 17 18 18 17 19 21 23 24 25 24 24 23 22 21 20 19 18 18 17 17 16 16 17 18 17 18 18 19 19 20 21 21 21 21 21 22 23
2 3 5 6 5 4 3 2 1 4 2 4 6 7 6 6 6 5 5 3 2 1 4 4 2 1 5 7 4 2 2 6 9 10 9 10 10 8 9 9 10 13 15 16 15 16 18 18 17 17 17 16 16 18 20 21 22 23 23 23 21 20 20 19 19 18 17 17 16 16 17 17 17 16 16 17 18 18 19 20 20 20 20 20 21 22
2 1 1 3 3 5 5 5 6 3 6 10 7 7 7 6 5 4 3 4 3 2 5 5 2 0 3 6 4 3 4 6 6 6 7 8 7 6 7 9 7 7 7 11 13 13 15 15 14 14 14 14 16 18 19 20 20 21 21 20 19 19 18 18 18 17 17 17 17 17 17 17 16 15 15 16 16 16 17 18 18 18 19 19 20 21
3 3 1 1 4 7 7 6 8 5 7 7 4 5 5 4 4 4 4 3 2 4 6 3 2 1 3 6 4 4 6 6 5 4 6 9 9 6 7 8 7 4 1 7 10 11 12 12 12 11 12 14 15 16 17 17 18 18 18 17 17 17 17 16 16 16 15 15 15 15 15 14 13 13 13 14 14 14 15 16 17 18 19 20 20 21
2 1 1 2 3 5 6 5 5 4 3 4 4 6 5 2 2 2 3 1 2 5 4 2 1 2 5 8 8 11 11 7 8 9 8 10 10 6 6 7 6 4 4 7 10 10 11 10 10 10 11 12 13 13 14 15 15 16 15 15 15 14 14 13 13 13 13 12 12 12 11 11 10 11 11 11 12 12 13 15 16 17 18 19 20 21
1 3 1 3 2 5 5 5 3 2 0 4 5 6 4 3 3 2 3 2 3 4 3 3 2 2 5 5 9 14 14 8 9 12 11 11 11 7 7 7 5 4 5 7 9 11 11 10 10 9 10 11 11 12 13 13 13 13 13 12 12 11 11 11 11 11 10 10 10 10 9 9 9 9 9 10 10 11 12 14 15 16 17 18 19 19
4 3 3 3 2 4 4 3 6 5 4 3 3 5 5 5 4 4 4 3 3 2 3 3 2 3 3 2 5 11 14 13 12 13 14 15 14 10 8 6 4 2 4 7 9 10 10 10 10 10 10 11 12 12 12 12 12 12 12 11 11 10 10 10 10 10 10 10 10 10 9 8 8 8 8 9 10 11 12 13 15 17 17 18 18 18
3 4 3 2 1 5 4 3 4 6 3 2 1 4 3 4 5 3 3 5 3 0 1 2 3 4 4 6 9 8 11 15 15 13 13 14 15 13 10 5 3 1 2 5 8 9 9 9 9 9 10 11 11 12 12 12 11 12 12 11 11 10 10 10 11 10 10 9 8 7 7 7 6 7 8 9 10 12 13 15 17 18 18 18 18 18
3 2 3 3 2 2 2 2 2 3 3 2 2 3 4 4 8 6 2 0 3 1 3 1 4 5 4 7 9 5 6 10 10 11 10 10 12 13 12 7 3 3 3 5 7 9 10 9 9 9 10 11 11 11 11 11 11 10 10 11 11 11 11 11 10 10 9 8 7 6 5 5 5 7 9 11 12 14 16 17 18 18 19 19 19 20
5 2 3 2 2 1 1 4 5 5 3 4 3 5 3 2 5 4 2 3 3 2 4 1 4 5 3 4 7 7 5 7 6 7 7 5 7 10 11 8 6 4 3 5 8 10 11 11 11 11 11 11 11 11 10 9 9 9 10 10 10 11 11 12 12 11 10 9 8 7 6 6 7 9 11 12 13 15 16 17 17 18 19 19 20 21
5 3 3 1 2 1 2 4 4 5 5 3 4 4 4 3 2 2 2 1 1 2 4 4 4 3 4 5 5 4 4 5 5 2 2 4 5 6 7 6 5 5 5 6 8 11 11 11 12 11 12 12 11 11 11 11 12 12 12 12 12 12 12 12 11 10 9 8 6 5 6 7 9 10 11 12 13 14 15 16 17 19 20 19 20 22
4 3 2 1 1 1 2 2 5 1 4 3 2 3 3 2 4 2 2 4 3 3 3 4 4 3 7 6 5 9 9 6 6 4 2 4 2 0 1 2 3 5 6 9 12 14 13 12 11 12 12 12 12 13 14 15 14 13 11 10 10 9 9 9 8 6 4 3 4 6 8 9 11 12 12 13 14 15 16 17 19 20 21 21 22 23
3 3 4 1 2 1 2 3 7 7 4 2 3 3 1 1 2 1 1 2 4 4 3 2 3 5 6 4 7 10 9 7 7 4 3 5 4 4 2 2 4 6 7 10 13 16 15 13 12 12 13 14 15 16 16 15 13 10 9 8 7 6 5 5 4 4 5 7 9 12 13 14 15 16 16 16 16 17 17 18 20 21 23 24 24 24
2 3 5 2 1 3 4 3 3 5 6 6 5 6 6 4 4 3 2 1 2 3 4 3 3 8 6 4 6 7 6 6 6 6 6 6 4 1 1 2 5 8 9 11 13 15 15 14 13 13 14 17 19 18 15 13 11 9 8 7 7 5 4 5 6 8 11 12 13 15 17 18 19 19 19 18 19 19 19 20 21 22 23 24 24 25
3 4 5 2 3 4 3 2 1 2 2 4 3 4 5 4 5 6 5 4 2 2 2 4 1 8 6 3 5 6 6 6 5 7 8 5 3 3 3 2 4 7 11 13 13 12 13 13 14 15 16 19 19 16 14 11 9 8 6 5 4 3 5 7 9 12 13 14 16 18 20 21 21 20 20 21 21 21 21 21 21 21 22 22 23 24
4 4 4 1 2 3 4 3 3 2 1 2 3 3 5 3 3 5 5 4 4 3 3 4 2 8 6 2 3 6 9 9 7 6 6 5 5 6 6 5 2 3 8 10 10 10 12 15 17 17 18 19 17 14 11 9 6 5 3 2 3 5 6 8 9 12 14 15 18 20 22 22 21 21 21 22 22 21 20 19 19 19 19 20 20 21
6 3 5 4 2 3 3 3 3 3 2 4 3 3 4 4 6 5 2 4 2 4 7 5 5 6 4 4 2 4 6 7 7 4 4 3 2 6 7 6 4 1 7 10 13 14 16 18 18 18 17 15 13 10 7 5 3 2 3 4 6 7 7 8 10 12 14 16 18 20 21 21 21 21 21 21 20 19 17 16 16 16 17 18 19 20
8 3 6 7 6 6 6 5 4 3 3 2 2 4 6 7 9 5 2 4 2 5 7 6 7 4 2 4 2 3 4 5 5 4 3 3 0 4 3 2 3 6 12 14 15 16 16 15 15 14 12 10 7 5 3 2 3 4 6 7 8 8 9 10 12 13 14 16 17 18 19 20 20 19 19 18 16 15 14 13 14 15 16 18 19 20
4 1 6 9 10 12 11 8 4 6 6 5 5 8 9 9 10 7 5 4 5 3 4 8 12 8 4 2 3 4 4 5 5 3 2 2 1 1 2 5 8 12 16 15 13 12 11 10 9 8 6 5 3 2 3 5 6 7 8 9 9 10 11 12 14 15 15 16 16 17 17 17 16 15 14 14 13 13 12 13 15 16 17 19 20 20
4 3 9 10 13 13 8 6 4 7 9 10 10 11 10 10 10 8 8 10 6 6 6 13 12 13 10 6 6 8 5 5 7 6 6 4 4 5 7 11 13 15 16 14 10 8 7 6 5 3 2 3 4 5 6 7 9 10 10 11 11 12 13 14 14 14 15 15 15 15 14 13 12 12 12 12 12 12 13 14 15 17 18 19 20 21
3 7 8 8 13 12 4 6 5 7 8 8 12 13 12 13 13 13 15 15 9 8 15 13 9 13 13 8 9 10 6 6 6 5 5 5 7 10 12 13 14 15 15 13 11 8 5 2 2 3 4 6 7 8 9 10 11 12 12 13 13 13 14 14 13 13 13 14 13 12 11 10 10 11 11 12 12 13 14 16 17 18 19 20 21 22
3 5 5 7 11 11 4 6 5 7 6 5 10 14 14 16 17 17 18 19 14 14 19 9 6 13 13 8 10 13 12 13 10 6 7 8 10 13 14 15 16 17 17 15 13 11 9 7 8 7 8 10 10 12 12 13 13 13 13 13 13 13 13 12 12 12 12 12 11 10 10 9 10 11 12 13 14 15 17 18 19 20 21 22 23 24
4 3 2 6 5 8 5 6 4 5 6 5 7 9 12 14 16 18 18 17 13 13 16 9 6 15 9 10 12 17 18 18 14 12 13 13 14 16 17 18 18 18 19 18 17 15 12 12 13 13 13 13 13 13 13 13 13 13 13 13 12 12 12 12 12 12 11 11 10 10 10 10 10 12 14 15 16 18 19 20 21 22 23 24 24 25
5 2 2 5 4 6 4 7 6 5 5 2 3 7 12 14 14 15 13 10 9 11 13 9 9 14 6 11 12 15 15 15 15 17 20 22 22 23 22 21 21 20 20 20 19 18 16 16 16 16 15 15 14 13 13 12 12 12 12 12 12 12 12 13 12 11 11 10 10 10 10 11 13 14 16 17 18 19 20 21 22 22 23 24 25 26
6 5 2 5 6 4 2 6 8 7 5 3 7 12 18 16 13 9 6 6 9 11 10 9 12 15 6 8 8 7 8 12 19 22 25 26 27 27 27 27 26 25 24 24 23 22 21 18 16 14 14 13 12 11 11 11 11 11 12 12 12 12 12 12 11 10 10 10 10 11 12 14 15 16 17 18 19 19 20 21 21 22 23 24 24 24
5 6 3 4 5 2 1 6 8 5 5 8 8 12 17 16 14 10 9 14 14 11 10 10 12 13 6 7 9 9 10 15 21 22 21 22 23 26 27 26 23 21 21 22 22 22 20 17 14 12 11 10 9 9 9 10 10 11 11 11 11 10 10 10 10 9 10 11 12 13 14 15 16 16 17 18 18 19 19 20 21 21 21 22 22 22
6 6 4 2 3 2 2 6 5 6 10 7 2 7 13 15 16 16 16 17 15 13 13 13 13 14 12 13 15 15 14 15 17 16 15 16 19 21 22 22 19 14 13 14 16 15 14 13 12 10 9 8 7 8 8 9 9 9 9 9 8 8 8 9 9 10 10 12 13 14 15 16 16 16 17 17 18 19 19 19 19 20 21 22 23 24
7 6 3 2 3 3 3 4 6 6 5 4 3 2 7 8 9 11 13 13 11 11 12 15 17 18 20 22 18 12 11 11 10 11 11 12 14 16 16 15 13 9 8 9 10 10 10 10 9 8 7 7 6 7 8 7 7 6 6 6 6 7 8 9 10 10 11 11 12 13 14 15 16 16 17 18 19 19 20 20 21 22 24 25 26 27
7 6 4 4 4 3 4 5 4 4 4 4 5 3 6 8 10 10 9 10 11 14 15 15 18 18 20 23 19 11 8 8 7 7 8 9 11 11 10 8 7 7 8 9 9 9 9 9 9 8 6 5 5 5 5 4 3 3 3 5 6 8 9 10 11 11 11 12 12 13 15 16 17 17 18 19 20 21 22 23 25 26 28 30 31 31
4 4 4 6 4 4 4 2 1 2 5 8 7 4 8 14 15 12 8 7 7 14 21 19 16 15 16 18 17 10 6 5 5 4 6 7 8 7 6 7 8 8 9 9 9 9 9 8 6 5 3 3 2 1 1 1 2 4 5 7 8 9 10 11 12 13 13 14 15 16 17 18 20 21 21 22 23 24 25 26 27 29 30 32 34 35
2 1 2 4 3 4 5 4 4 6 7 8 6 3 8 17 17 12 6 8 5 8 19 19 15 16 18 17 14 9 7 4 6 4 8 8 8 8 8 8 9 9 10 10 9 8 8 6 5 4 2 1 1 3 4 5 6 7 8 9 10 11 13 13 15 16 17 18 19 20 21 22 23 24 25 26 27 28 29 29 30 31 32 34 36 37
5 2 2 4 5 5 6 5 4 4 4 5 5 3 8 17 19 12 4 10 4 4 10 15 16 18 18 14 9 8 6 6 6 8 13 12 10 10 9 9 11 11 11 11 10 9 7 6 5 3 2 2 4 6 6 7 8 9 10 11 12 14 16 17 19 20 20 21 22 23 24 25 26 27 28 30 31 32 33 33 34 35 36 37 38 40
5 3 4 6 8 9 9 7 5 4 4 5 5 6 13 18 14 8 7 6 5 5 5 10 15 12 9 9 9 8 7 6 8 14 16 14 12 12 12 12 12 12 12 12 10 9 7 6 4 3 4 6 7 7 8 9 10 11 13 14 16 18 20 22 23 24 24 25 26 26 27 28 29 31 31 33 34 36 37 38 38 39 40 41 42 43
6 4 4 7 8 8 8 7 4 4 6 8 8 9 14 11 5 7 6 5 8 9 7 7 10 8 7 10 11 12 13 13 15 17 17 15 14 14 13 12 12 12 12 11 10 8 6 5 5 5 6 7 8 9 10 11 12 14 16 18 20 22 23 25 26 27 28 29 30 30 31 32 33 34 35 36 37 39 41 42 42 43 44 45 46 47
7 5 4 5 6 4 4 6 5 4 5 14 14 7 6 5 3 8 11 8 8 10 10 10 10 9 11 13 15 18 20 20 19 19 18 16 14 14 13 12 11 10 9 8 7 5 5 5 7 7 8 9 10 12 13 15 17 18 20 21 22 24 25 27 28 30 31 31 32 33 33 34 34 35 36 37 38 40 42 43 44 45 46 47 48 49
5 5 5 4 4 5 5 6 4 1 7 18 14 4 8 11 6 8 13 11 11 12 11 12 13 11 12 16 21 23 22 22 21 19 18 16 14 12 11 9 8 7 5 4 4 5 6 7 8 9 10 12 13 15 17 19 20 21 22 23 24 25 26 28 29 31 32 32 33 33 34 34 35 36 36 37 38 40 41 42 43 44 45 45 46 48
5 4 4 4 3 3 3 4 2 2 9 16 9 3 10 16 10 8 13 14 15 15 14 14 16 16 16 19 23 25 24 22 21 18 15 14 11 8 6 5 4 3 3 4 5 7 8 9 9 9 10 12 14 16 17 18 19 20 21 22 23 24 26 27 29 30 31 32 33 34 35 36 36 37 38 38 39 41 42 43 44 45 46 46 46 47
2 2 2 2 2 2 1 3 4 2 5 12 10 6 11 15 12 10 12 14 16 17 16 16 18 20 21 21 23 24 23 20 18 15 12 10 8 5 3 1 0 2 4 5 6 8 8 9 9 9 10 11 13 14 16 17 19 20 21 22 22 23 25 27 29 31 32 33 35 36 38 39 40 41 41 41 42 43 44 45 46 47 48 48 48 48
2 3 2 1 3 4 2 2 3 2 5 10 12 11 13 14 14 13 12 14 17 19 19 19 19 22 23 21 21 23 22 19 16 14 11 9 7 5 3 2 2 3 5 6 7 8 9 9 10 11 12 13 15 16 18 19 20 21 22 23 24 25 27 29 31 33 35 37 38 39 41 42 43 44 45 44 44 45 45 45 46 47 48 48 48 48
2 5 4 2 3 4 2 0 2 2 4 10 14 16 17 18 18 18 17 17 20 22 23 23 23 24 24 22 20 21 22 19 15 13 10 8 6 4 2 2 3 4 6 7 8 10 11 12 13 14 15 16 17 18 19 19 20 21 23 25 27 28 30 32 34 36 38 39 41 42 43 43 44 45 46 46 46 46 47 46 46 47 48 48 48 48
4 5 4 2 2 1 2 2 4 3 1 7 14 18 19 20 21 21 20 21 22 24 25 26 24 22 21 19 17 15 15 14 12 10 8 7 5 4 3 4 5 7 8 10 11 12 12 13 14 14 15 16 16 17 18 19 20 22 24 26 28 31 33 35 36 38 39 40 42 42 43 44 45 45 47 47 48 48 48 48 48 49 49 49 48 47
5 4 3 3 3 3 4 7 11 6 1 10 20 21 20 21 22 21 22 23 24 24 25 25 23 20 18 16 14 12 11 11 11 10 8 7 7 7 7 8 9 10 10 11 12 12 12 12 13 13 14 15 15 16 17 19 21 23 25 27 30 32 34 35 37 38 39 40 41 42 43 44 45 45 46 47 48 49 50 49 48 49 50 50 49 48
7 6 6 6 5 6 6 14 22 14 5 11 24 25 21 22 22 22 22 23 23 22 21 21 20 19 18 16 14 12 11 10 10 10 9 9 9 9 9 10 10 10 11 11 11 11 11 12 13 13 14 15 16 17 18 20 22 24 26 28 29 31 33 34 36 37 39 39 40 41 43 44 45 46 46 47 47 49 50 52 51 50 50 50 50 49
Wind_Direction
123 129 164 180 184 188 193 163 141 151 136 135 130 117 148 164 227 251 262 301 2 165 249 254 267 280 268 268 274 276 280 273 271 274 274 273 268 263 258 252 248 245 247 249 245 241 239 237 235 233 232 232 233 234 235 236 238 239 241 244 246 247 249 250 249 249 248 248 249 248 247 249 250 247 242 236 238 242 248 257 261 262 266 265 260 262
116 161 207 205 185 168 158 129 107 100 89 97 131 142 174 189 208 235 248 307 5 187 264 348 316 278 265 264 270 273 276 265 262 262 266 269 267 264 261 257 254 252 252 252 249 245 243 241 238 235 233 233 235 236 237 237 236 236 239 242 244 245 246 247 248 248 248 248 250 254 256 257 256 255 255 252 251 255 257 261 264 266 270 265 258 262
134 210 236 198 146 108 89 93 95 90 87 85 114 132 179 222 228 266 271 325 10 189 267 354 335 281 271 264 263 263 256 257 262 259 261 265 265 265 263 262 261 259 258 256 254 250 247 246 242 240 239 240 242 243 242 240 237 237 238 240 242 244 244 244 245 245 246 248 250 253 256 260 262 262 264 264 262 262 259 260 261 263 266 264 258 258
174 252 244 163 135 109 82 73 94 88 83 94 111 129 192 237 193 225 258 329 5 81 261 321 315 286 284 282 268 260 252 258 263 260 259 259 259 262 262 264 266 266 265 262 259 255 251 248 244 243 242 242 243 243 242 240 238 237 236 238 241 243 243 242 243 244 244 245 247 250 251 253 255 257 259 258 256 255 251 249 251 256 264 268 267 263
188 264 161 136 124 117 112 106 121 118 95 106 151 145 171 197 175 198 256 348 356 28 39 18 318 293 303 312 283 279 276 265 264 264 262 257 257 262 264 265 266 267 268 264 262 257 249 245 242 241 241 240 240 240 240 239 238 237 235 237 240 240 240 237 238 240 240 241 242 243 244 245 245 245 247 246 247 250 248 247 249 253 258 261 266 270
220 244 136 127 92 107 121 155 177 157 152 244 219 177 170 170 158 150 78 64 40 356 359 23 327 286 318 311 271 301 342 298 283 278 269 263 260 261 263 265 266 266 265 262 263 254 240 236 236 237 238 238 240 239 238 237 235 235 234 235 236 236 235 233 234 234 236 239 241 242 242 243 244 244 245 245 247 250 252 255 256 253 253 255 260 265
219 66 115 124 123 120 124 187 213 160 139 212 231 168 142 132 130 135 123 89 95 252 334 48 158 262 312 297 267 312 330 302 297 283 272 268 263 264 268 271 270 268 266 259 253 242 227 223 225 230 234 237 239 238 236 233 231 231 232 232 232 232 230 229 230 231 234 238 240 244 246 248 250 251 253 255 256 258 261 263 261 258 258 260 260 257
104 89 76 95 110 122 141 203 221 152 132 217 229 133 126 125 137 145 115 96 185 233 328 21 113 239 296 272 273 330 327 305 305 289 278 277 278 285 286 283 278 272 269 260 244 233 223 221 224 228 234 235 233 231 229 227 227 227 228 228 228 228 226 225 226 227 232 236 240 244 247 250 252 255 258 259 260 261 263 262 261 261 261 263 264 261
87 149 168 126 115 150 178 231 213 152 128 246 210 123 128 129 128 124 98 96 65 13 299 322 52 207 269 274 307 350 325 299 293 280 282 293 301 305 298 290 281 273 266 254 241 235 228 228 232 233 235 233 225 222 222 220 220 220 221 222 223 224 223 221 221 223 227 232 237 240 243 247 250 253 256 256 257 257 259 259 259 259 259 259 260 259
53 173 187 144 143 182 188 332 271 162 128 171 150 99 86 80 84 86 89 100 55 32 240 266 11 198 263 281 306 349 278 257 266 271 277 294 313 326 322 314 292 277 261 241 232 229 224 223 228 230 231 228 221 218 217 215 215 215 215 217 218 219 218 217 217 219 223 228 232 236 240 245 247 250 252 253 254 254 256 258 259 259 259 258 257 255
350 98 128 116 145 158 137 60 35 63 129 138 126 80 69 42 40 53 53 82 69 305 251 254 297 201 269 279 252 212 225 218 238 286 290 298 328 350 347 350 335 301 260 227 216 209 207 210 217 222 223 220 216 215 213 212 211 210 210 211 211 212 212 212 214 218 222 227 233 237 240 244 246 248 249 251 253 253 255 258 261 263 263 262 261 259
7 76 67 101 131 126 109 62 43 65 112 114 99 97 88 9 13 27 1 43 115 250 260 267 294 185 226 260 250 241 256 224 212 273 284 294 318 342 354 3 6 5 166 184 185 185 190 197 206 210 210 211 210 209 208 207 205 204 204 205 205 208 209 211 215 219 224 229 233 236 239 242 244 245 247 250 254 256 258 261 264 265 264 265 264 263
31 108 312 83 154 158 122 78 43 10 29 70 106 118 101 15 22 3 309 332 214 240 269 275 241 218 233 250 260 263 264 239 218 235 258 288 297 316 350 0 18 53 117 155 165 173 178 182 188 193 198 201 199 198 197 197 197 197 197 198 200 202 205 208 211 215 218 221 224 228 230 233 235 239 244 251 256 258 261 265 267 267 267 269 269 269
267 306 307 111 198 217 163 125 129 257 263 126 142 135 132 121 101 237 255 286 257 251 298 289 244 260 272 266 248 249 257 253 234 240 257 282 284 293 329 350 20 65 115 141 156 159 161 163 164 171 179 182 183 183 184 184 185 184 183 185 188 191 193 197 200 202 203 204 207 212 215 216 222 231 240 249 255 261 265 267 270 271 273 273 274 275
180 267 225 163 189 190 180 168 152 143 134 170 174 133 150 160 152 200 209 197 230 257 308 296 246 207 217 277 242 243 266 278 266 260 263 260 257 269 295 324 3 41 125 139 155 156 154 155 153 156 161 166 170 171 171 171 171 172 174 176 179 182 183 187 190 191 194 197 202 205 207 210 217 227 238 249 256 262 266 268 269 269 271 272 274 276
168 243 257 312 303 156 169 202 135 109 114 225 117 105 168 186 138 138 177 174 170 127 293 248 239 218 213 281 278 259 270 276 269 271 272 253 243 253 269 290 342 335 167 152 157 161 162 160 158 158 160 164 167 168 169 171 172 174 176 179 182 185 187 189 190 192 194 197 201 203 206 212 221 236 248 256 261 264 266 266 267 268 272 274 275 276
156 252 311 356 12 86 145 192 128 114 165 164 120 166 213 166 113 114 185 46 82 181 258 222 255 291 320 294 294 309 294 277 260 257 264 253 240 245 255 264 293 288 218 185 171 173 177 177 178 178 175 177 178 178 179 179 182 184 185 189 191 190 189 187 184 180 178 179 183 186 193 212 235 250 257 262 265 267 269 271 275 279 281 281 279 276
154 136 328 31 100 359 52 106 68 42 92 123 173 201 187 121 96 112 157 13 44 233 274 285 245 288 323 279 312 350 327 286 254 235 246 253 238 240 248 254 263 264 229 208 189 185 189 189 190 191 190 190 186 183 182 178 178 176 176 178 175 172 172 169 166 164 164 167 171 178 193 217 234 245 252 258 262 266 272 277 283 286 285 284 281 276
132 116 316 5 142 288 3 105 90 27 40 111 176 164 118 144 171 103 139 159 129 236 278 300 282 263 213 229 291 300 264 265 274 274 262 262 257 249 252 255 252 242 232 225 205 197 200 197 195 196 195 193 187 178 167 159 154 149 150 153 153 154 155 157 159 158 162 167 173 194 218 231 238 245 250 255 262 269 277 283 286 285 285 284 281 279
117 125 219 282 234 263 28 136 179 168 29 47 106 108 80 131 164 160 153 164 175 201 251 307 325 265 226 215 214 238 249 250 262 288 259 235 243 118 220 227 214 215 221 220 210 203 206 205 202 198 193 188 178 165 154 148 143 138 140 145 146 150 153 157 160 158 171 205 237 251 255 255 257 258 259 263 269 275 279 281 282 283 284 282 281 280
102 129 170 274 312 188 168 208 191 173 151 109 126 157 176 78 114 163 103 112 141 161 186 262 298 269 249 208 192 226 252 239 232 246 200 172 138 99 99 159 187 199 214 219 212 207 208 209 205 196 188 179 166 156 149 147 144 140 143 146 150 155 160 173 187 210 241 251 254 258 259 260 261 263 266 269 272 273 272 271 274 276 278 279 280 281
136 143 152 143 188 194 226 250 194 174 166 160 171 183 177 149 124 153 240 262 116 142 168 169 256 267 254 207 199 216 240 242 236 243 234 206 184 152 76 167 205 206 209 216 215 214 214 209 201 190 179 172 164 157 154 153 154 158 162 162 164 172 186 208 226 234 240 247 252 256 256 256 259 262 267 269 267 266 265 266 269 272 275 278 280 281
116 108 118 143 207 211 255 302 162 186 157 150 192 191 168 160 140 152 206 223 122 116 145 115 258 272 260 205 206 227 254 277 270 256 266 285 325 353 36 125 204 203 202 212 216 219 214 200 188 180 175 175 173 170 168 167 169 175 176 175 181 205 221 228 235 239 246 255 259 258 256 256 260 264 266 265 264 264 265 267 270 275 280 282 283 284
127 112 117 105 309 313 326 356 33 29 101 174 231 189 160 179 150 148 182 170 139 169 140 88 280 269 278 278 229 251 268 285 283 261 273 315 4 25 40 56 76 181 185 194 195 189 181 174 171 171 174 179 180 179 177 174 173 176 189 231 251 257 251 246 249 253 259 262 260 257 257 259 262 264 263 262 263 265 268 271 276 281 286 289 289 289
178 157 130 122 37 3 350 353 341 308 218 199 219 167 147 126 100 102 116 100 119 207 156 139 240 252 283 316 321 303 298 296 285 246 229 262 34 52 36 19 352 199 160 159 161 158 157 159 163 166 170 174 176 175 172 168 177 217 263 276 276 275 272 269 271 271 269 265 260 257 257 258 260 260 260 262 265 268 272 277 283 289 293 295 296 298
177 182 148 154 169 182 195 205 214 217 191 186 172 154 158 145 137 146 122 108 222 227 158 172 231 238 331 335 333 331 326 306 272 229 218 250 86 59 21 322 246 182 158 150 146 145 147 151 156 161 163 165 168 169 179 212 247 261 268 274 280 283 284 283 280 275 269 263 257 255 254 254 255 257 259 263 266 271 277 285 291 296 299 299 300 302
142 209 185 187 196 199 201 203 169 122 143 185 180 166 173 172 162 144 114 162 201 173 158 220 236 242 264 272 240 257 278 274 263 257 264 249 224 276 230 198 186 172 159 149 141 138 140 142 146 151 156 164 185 226 252 260 262 264 269 276 281 284 283 279 275 269 264 259 254 251 251 252 254 256 261 265 271 278 285 294 298 299 300 299 300 302
86 208 202 203 215 217 199 185 160 133 163 186 170 164 175 174 163 153 181 208 169 116 232 237 228 242 243 192 210 245 247 249 260 267 265 244 218 222 209 192 181 172 167 165 162 153 140 136 142 154 184 214 235 248 253 258 262 266 273 277 279 280 277 273 269 263 258 254 250 248 249 252 256 260 265 271 279 287 294 299 300 299 299 298 298 298
112 205 206 197 219 230 164 142 176 159 163 177 168 171 174 169 173 182 205 216 166 162 239 231 186 230 239 186 202 228 211 221 242 245 246 235 217 212 204 195 187 183 185 190 196 196 187 203 255 263 264 264 262 263 263 263 266 269 273 276 276 274 270 264 259 254 251 249 248 248 250 253 260 266 272 280 288 295 299 300 299 298 297 296 295 295
152 207 196 175 217 239 179 147 186 163 145 166 177 179 175 174 186 194 207 219 200 205 238 229 170 241 243 184 205 226 224 240 251 242 234 232 224 218 211 208 203 198 200 205 214 222 233 264 286 283 274 271 267 265 263 261 263 265 268 270 268 263 257 251 247 244 243 244 243 246 251 258 267 275 282 290 295 299 300 299 298 297 296 296 295 295
187 221 163 143 208 249 198 162 184 160 151 174 181 184 183 181 193 204 211 218 209 219 244 247 256 268 246 161 201 226 226 237 247 241 238 238 232 227 221 220 216 210 214 221 228 238 254 278 289 287 279 270 260 254 253 254 256 260 261 258 252 245 239 235 234 233 233 236 241 247 256 265 275 283 289 293 297 298 298 297 296 295 295 295 296 297
183 211 77 119 184 247 210 168 166 110 93 146 192 189 192 193 201 210 212 209 193 210 237 242 253 263 226 155 203 223 212 224 238 236 239 243 241 237 234 234 234 233 236 243 251 263 276 283 283 280 272 264 256 252 251 251 252 250 247 242 235 228 224 224 226 228 232 239 248 257 267 276 283 290 294 297 298 298 297 296 296 296 296 296 297 298
167 159 128 152 185 252 284 150 140 97 83 249 236 203 197 199 204 205 219 229 204 196 212 218 232 247 220 153 206 220 178 209 234 236 239 245 248 250 249 248 249 250 253 260 267 275 282 282 277 270 261 255 250 243 239 235 232 228 226 223 219 217 219 223 229 236 244 254 265 274 283 289 293 298 299 299 300 299 299 299 299 299 299 299 301 303
156 153 168 172 174 242 287 119 114 122 199 231 229 198 193 195 192 190 210 223 213 200 210 222 238 253 237 164 202 217 199 221 241 247 250 252 255 258 259 259 261 261 261 264 268 271 273 272 268 260 251 243 234 224 218 215 212 211 212 213 214 219 226 233 243 253 262 272 281 287 292 297 300 301 302 302 303 304 304 303 303 304 303 304 307 308
159 159 165 156 146 172 138 116 129 202 223 238 243 175 187 192 190 196 216 224 214 207 221 236 249 256 247 224 220 225 231 241 251 260 262 256 255 259 261 264 268 268 261 257 255 255 254 251 249 243 233 223 213 206 202 202 203 204 210 216 223 233 243 253 265 276 284 290 295 299 301 304 306 307 307 308 308 308 308 307 307 308 308 308 311 311
159 156 146 148 147 133 132 167 197 227 250 280 312 164 173 177 176 195 231 246 230 207 212 230 240 245 249 248 242 237 242 243 239 247 252 250 253 257 256 256 257 248 229 218 217 220 219 219 220 215 209 201 192 189 188 190 197 205 216 234 248 262 276 285 292 299 303 306 308 309 310 311 313 313 313 313 313 312 313 313 312 313 312 311 312 313
153 153 153 189 188 150 159 197 233 309 323 276 246 204 162 161 164 179 220 249 233 208 203 218 235 241 247 253 252 243 234 229 224 234 237 235 243 248 241 231 217 203 188 177 179 184 186 192 196 193 191 183 174 177 179 180 199 232 260 278 289 298 304 308 312 316 320 322 320 320 320 319 319 319 318 317 317 316 316 316 316 315 315 314 315 315
161 165 169 198 201 148 156 192 234 252 251 238 227 194 170 178 174 169 194 243 241 210 203 210 229 238 242 251 251 231 205 228 252 228 192 199 216 216 202 187 175 170 164 158 159 163 166 173 176 167 154 151 154 150 104 15 332 316 312 314 315 318 320 322 326 329 331 332 330 328 327 325 323 322 321 319 318 317 316 316 315 315 315 314 314 314
185 102 128 188 200 165 180 209 207 209 236 241 228 202 183 181 163 136 178 247 261 202 200 205 220 234 238 245 239 195 163 226 257 193 154 164 178 176 172 165 153 146 144 143 141 142 145 145 138 125 115 130 85 27 17 359 346 337 332 333 333 332 332 333 334 335 335 335 333 330 328 326 324 323 321 320 318 316 315 314 313 313 312 311 311 311
193 165 148 190 206 199 197 216 226 230 252 238 224 223 181 166 146 125 202 245 238 155 187 198 209 226 235 232 209 168 173 233 230 165 155 159 158 157 155 146 139 136 133 132 130 127 125 122 128 133 101 64 41 29 18 3 355 350 344 344 342 339 338 337 336 336 335 332 330 328 326 324 322 321 319 318 316 314 313 312 310 309 308 307 307 306
188 185 190 199 211 214 214 229 250 258 244 224 205 171 152 145 144 171 219 222 172 138 161 190 201 214 216 197 181 173 182 193 163 151 153 154 151 149 145 139 137 134 129 124 120 116 112 104 101 88 51 39 32 22 12 2 356 350 346 343 339 336 335 333 331 330 328 327 326 324 322 321 319 318 316 314 312 310 309 308 307 306 305 305 304 303
184 186 196 200 207 213 220 227 241 266 236 190 161 153 151 146 178 208 180 135 143 145 135 159 180 183 173 174 174 162 147 140 143 145 145 148 151 146 138 135 135 133 128 123 117 112 105 80 54 38 25 16 9 2 356 351 345 340 337 335 333 332 331 328 326 324 323 322 321 320 319 318 317 315 314 312 310 308 306 305 305 304 303 303 302 301
182 176 184 196 192 188 207 202 201 258 212 157 140 135 169 187 197 159 141 126 140 147 141 146 156 160 161 157 150 146 142 138 141 143 142 142 141 134 131 130 128 125 122 119 111 93 68 40 19 8 4 0 354 347 342 338 335 333 332 330 329 328 325 322 320 319 319 319 318 318 317 317 316 315 314 312 311 309 307 306 306 305 304 303 302 300
190 183 186 200 183 166 193 203 198 232 170 160 153 164 200 204 201 155 154 155 151 153 157 154 151 157 164 155 145 143 142 140 141 142 139 137 132 126 126 122 115 110 102 90 66 33 21 10 0 356 350 345 340 336 333 331 329 328 326 325 323 320 318 316 315 314 315 316 316 316 316 315 315 315 314 314 313 311 310 309 309 308 308 307 306 304
212 194 168 179 182 164 188 211 206 118 166 177 186 199 186 194 200 180 175 172 164 165 168 159 152 152 157 154 146 142 143 143 142 141 140 136 131 125 121 110 95 72 33 10 356 352 350 346 347 347 340 334 332 328 326 325 322 320 319 318 317 315 314 313 312 312 313 314 314 315 315 314 314 314 314 314 313 312 311 311 311 310 310 310 310 309
241 203 137 137 197 231 228 171 158 137 178 189 195 188 178 184 184 178 179 176 168 167 167 162 155 150 153 155 149 145 146 146 144 145 148 148 148 152 155 164 291 329 333 332 334 335 335 334 334 333 330 327 324 321 322 321 320 319 318 317 316 315 314 313 312 312 313 313 314 315 315 315 314 314 314 314 314 313 312 311 311 310 309 309 310 311
276 189 158 125 171 190 217 185 156 168 188 183 183 182 179 177 175 175 177 173 165 160 158 158 154 151 154 160 159 155 154 155 158 164 169 173 177 180 191 235 280 303 313 318 320 319 317 316 316 315 316 317 315 316 318 318 318 318 317 316 315 315 314 314 314 314 315 315 316 317 317 317 317 316 316 315 314 312 311 310 310 309 308 307 308 308
212 161 166 201 180 171 200 213 100 119 185 182 178 177 176 176 174 173 173 169 163 158 157 157 157 157 158 162 166 165 162 163 170 176 176 179 182 175 184 247 281 294 299 301 301 300 301 303 304 306 308 309 310 311 311 313 315 315 314 314 315 315 316 316 316 317 317 318 318 318 318 318 317 315 314 313 312 311 310 309 308 307 305 305 306 306
137 156 177 166 137 168 274 181 126 73 305 213 194 183 179 179 176 173 175 173 169 167 166 164 163 164 165 166 169 169 166 164 166 168 169 171 172 181 214 247 265 273 279 284 287 290 294 296 299 301 303 303 305 307 308 311 313 313 314 316 317 317 317 317 317 318 318 318 318 317 316 315 315 314 313 312 311 310 309 309 308 307 304 303 303 304
136 172 180 110 132 222 234 173 163 154 263 218 201 190 182 182 182 181 182 180 178 177 176 172 169 169 170 170 168 166 168 169 168 172 181 188 196 213 230 242 251 258 265 271 277 281 286 291 295 298 300 303 305 308 311 314 315 316 317 317 317 317 317 316 316 316 316 316 316 315 315 314 313 313 312 312 311 310 308 307 306 305 304 303 302 302
183 185 173 156 185 226 207 180 183 188 203 203 197 191 187 189 193 195 193 188 185 184 184 183 180 174 171 173 173 173 179 185 187 194 204 211 217 225 234 241 247 255 262 267 273 281 287 292 296 300 303 306 309 312 315 317 317 317 317 316 316 316 315 315 315 315 315 315 315 314 314 314 313 313 312 312 311 311 309 308 305 304 304 303 302 300
Height
1524 1527 1530 1530 1532 1533 1533 1535 1536 1538 1541 1543 1547 1549 1550 1550 1550 1554 1555 1555 1556 1551 1550 1552 1550 1547 1544 1541 1538 1537 1538 1539 1537 1536 1535 1535 1535 1535 1536 1536 1536 1536 1536 1537 1539 1540 1541 1542 1542 1543 1544 1545 1546 1547 1548 1549 1550 1551 1553 1553 1554 1556 1557 1558 1559 1560 1561 1562 1563 1564 1565 1565 1567 1568 1570 1572 1574 1575 1576 1576 1577 1578 1579 1580 1582 1583
1524 1527 1529 1529 1530 1532 1534 1538 1538 1540 1543 1544 1546 1548 1552 1553 1551 1554 1555 1555 1556 1552 1550 1554 1551 1544 1541 1539 1536 1535 1535 1534 1533 1533 1532 1531 1531 1531 1531 1532 1532 1533 1533 1534 1535 1537 1537 1538 1539 1540 1541 1541 1542 1543 1545 1546 1547 1549 1549 1550 1552 1553 1554 1555 1556 1557 1558 1559 1560 1561 1562 1563 1565 1566 1567 1569 1570 1572 1573 1573 1574 1575 1576 1577 1579 1580
1527 1528 1529 1530 1532 1534 1537 1539 1538 1540 1543 1545 1549 1549 1550 1554 1553 1554 1556 1556 1556 1552 1549 1554 1550 1539 1536 1536 1533 1532 1531 1529 1528 1528 1528 1528 1527 1526 1527 1527 1528 1529 1529 1530 1531 1532 1533 1534 1535 1536 1536 1537 1538 1540 1541 1543 1544 1545 1546 1547 1549 1550 1551 1553 1554 1555 1556 1557 1558 1559 1560 1561 1562 1563 1564 1566 1567 1569 1570 1571 1572 1574 1574 1574 1576 1577
1529 1528 1528 1531 1532 1533 1537 1540 1538 1540 1544 1546 1547 1547 1549 1554 1552 1549 1552 1556 1557 1555 1553 1553 1549 1538 1532 1531 1528 1526 1526 1524 1525 1524 1523 1524 1522 1522 1524 1524 1524 1524 1525 1525 1526 1528 1529 1529 1530 1530 1531 1533 1534 1536 1536 1538 1540 1541 1543 1545 1547 1548 1549 1550 1551 1552 1554 1555 1556 1557 1558 1560 1560 1561 1563 1564 1565 1567 1568 1569 1571 1571 1571 1572 1573 1574
1527 1529 1530 1531 1532 1532 1536 1540 1539 1539 1544 1547 1546 1543 1544 1549 1550 1549 1552 1555 1555 1556 1556 1551 1545 1536 1530 1529 1524 1523 1525 1523 1522 1521 1519 1520 1519 1519 1520 1520 1520 1521 1521 1521 1521 1523 1523 1523 1524 1525 1526 1528 1529 1530 1532 1534 1536 1538 1540 1542 1544 1545 1546 1548 1549 1550 1552 1552 1553 1555 1556 1557 1558 1559 1561 1562 1563 1564 1565 1566 1567 1568 1569 1570 1571 1571
1527 1530 1530 1530 1533 1534 1535 1538 1539 1538 1542 1546 1544 1541 1541 1543 1546 1551 1553 1552 1550 1552 1556 1555 1547 1536 1530 1528 1523 1522 1525 1521 1520 1520 1517 1516 1517 1517 1517 1516 1517 1518 1518 1518 1518 1519 1519 1519 1520 1520 1522 1523 1524 1526 1528 1530 1533 1534 1537 1539 1540 1542 1543 1545 1546 1548 1549 1550 1551 1552 1553 1554 1555 1556 1557 1558 1560 1561 1562 1564 1565 1566 1568 1569 1569 1569
1529 1532 1530 1530 1532 1534 1536 1538 1538 1539 1542 1544 1542 1542 1544 1544 1545 1548 1549 1549 1550 1552 1558 1561 1553 1543 1533 1524 1522 1525 1525 1520 1518 1518 1515 1514 1515 1515 1515 1514 1514 1515 1515 1515 1515 1516 1516 1516 1517 1517 1518 1520 1521 1523 1525 1526 1529 1531 1533 1535 1537 1539 1540 1542 1543 1545 1546 1547 1548 1549 1550 1551 1552 1553 1554 1556 1558 1559 1560 1562 1563 1564 1565 1566 1567 1567
1529 1532 1532 1531 1533 1535 1537 1537 1538 1539 1541 1542 1543 1544 1544 1543 1544 1547 1547 1548 1553 1555 1558 1560 1556 1553 1543 1527 1526 1530 1525 1518 1516 1514 1512 1511 1512 1513 1513 1512 1511 1511 1512 1512 1513 1514 1514 1514 1515 1516 1516 1517 1519 1520 1521 1523 1525 1528 1530 1532 1534 1536 1537 1539 1541 1542 1543 1545 1546 1547 1548 1549 1550 1551 1552 1554 1555 1556 1558 1559 1560 1561 1562 1563 1563 1564
1528 1529 1529 1530 1532 1535 1535 1536 1538 1537 1538 1542 1547 1547 1544 1544 1546 1548 1548 1550 1558 1558 1554 1556 1557 1557 1546 1528 1529 1533 1525 1519 1514 1511 1510 1510 1511 1511 1510 1510 1509 1508 1508 1509 1511 1511 1512 1512 1513 1514 1514 1515 1517 1518 1519 1521 1523 1525 1527 1529 1531 1533 1535 1537 1538 1540 1541 1543 1544 1545 1546 1547 1548 1549 1550 1552 1553 1554 1555 1555 1556 1558 1559 1560 1560 1561
1528 1528 1528 1528 1529 1532 1536 1540 1540 1537 1537 1543 1549 1548 1547 1550 1550 1551 1551 1550 1558 1557 1551 1557 1562 1557 1542 1524 1524 1529 1524 1519 1514 1510 1511 1510 1510 1510 1508 1508 1507 1506 1506 1506 1508 1509 1510 1511 1511 1512 1513 1514 1515 1516 1518 1519 1521 1523 1525 1527 1529 1531 1533 1534 1536 1538 1539 1541 1542 1543 1544 1545 1546 1547 1548 1549 1550 1551 1552 1552 1553 1554 1555 1556 1558 1558
1529 1528 1529 1530 1529 1531 1537 1540 1542 1540 1540 1543 1546 1545 1546 1550 1550 1552 1556 1554 1557 1557 1555 1565 1568 1561 1547 1525 1517 1521 1518 1515 1512 1510 1511 1509 1509 1509 1508 1508 1506 1505 1504 1504 1506 1507 1508 1510 1510 1511 1512 1513 1514 1515 1517 1518 1520 1522 1523 1525 1527 1529 1531 1533 1534 1536 1537 1539 1540 1541 1542 1543 1544 1545 1546 1547 1547 1548 1549 1549 1550 1551 1552 1553 1554 1555
1529 1529 1530 1530 1530 1533 1535 1538 1542 1543 1543 1544 1542 1541 1545 1551 1553 1554 1558 1558 1557 1556 1559 1571 1573 1566 1553 1528 1514 1517 1516 1515 1514 1511 1511 1509 1508 1508 1507 1507 1506 1505 1505 1505 1506 1507 1508 1509 1510 1511 1511 1513 1514 1515 1516 1517 1519 1521 1522 1525 1526 1528 1530 1531 1533 1534 1535 1537 1538 1539 1540 1541 1542 1543 1544 1544 1545 1546 1547 1547 1548 1549 1549 1549 1550 1551
1528 1528 1531 1531 1532 1532 1531 1536 1545 1546 1544 1544 1541 1542 1547 1557 1562 1558 1561 1564 1561 1559 1564 1573 1572 1562 1547 1526 1515 1514 1510 1512 1514 1512 1511 1510 1508 1508 1508 1507 1506 1506 1506 1506 1507 1507 1509 1509 1510 1511 1511 1512 1514 1514 1516 1517 1519 1521 1522 1524 1526 1527 1529 1530 1531 1533 1534 1535 1536 1537 1538 1539 1540 1541 1542 1542 1543 1544 1545 1545 1546 1546 1546 1547 1547 1547
1529 1530 1531 1530 1531 1531 1527 1532 1541 1543 1543 1542 1540 1540 1544 1557 1565 1563 1569 1573 1564 1560 1568 1576 1570 1553 1534 1520 1514 1510 1505 1508 1511 1510 1509 1509 1508 1508 1507 1507 1507 1507 1507 1507 1508 1508 1509 1510 1510 1511 1512 1512 1514 1514 1516 1517 1518 1520 1522 1523 1525 1526 1527 1529 1530 1531 1533 1534 1534 1536 1537 1537 1538 1539 1540 1541 1541 1542 1543 1543 1544 1544 1544 1544 1544 1544
1527 1528 1527 1527 1527 1528 1528 1528 1531 1534 1539 1541 1541 1539 1539 1545 1549 1552 1559 1557 1553 1560 1570 1573 1560 1537 1520 1512 1510 1508 1507 1507 1507 1507 1508 1507 1508 1508 1507 1508 1508 1508 1509 1508 1509 1509 1509 1510 1511 1511 1512 1513 1514 1515 1516 1517 1518 1520 1521 1522 1524 1525 1526 1528 1529 1530 1531 1533 1533 1534 1535 1536 1537 1538 1539 1539 1540 1540 1541 1541 1541 1541 1541 1541 1541 1542
1525 1523 1524 1527 1526 1526 1528 1528 1529 1531 1537 1543 1544 1541 1539 1536 1538 1555 1568 1563 1560 1563 1563 1563 1549 1529 1518 1509 1507 1509 1507 1506 1505 1505 1507 1505 1506 1508 1507 1508 1508 1508 1509 1509 1509 1510 1510 1511 1512 1512 1513 1513 1514 1515 1516 1517 1518 1519 1520 1521 1523 1524 1526 1527 1528 1530 1531 1532 1533 1533 1534 1535 1536 1537 1537 1538 1538 1539 1539 1539 1538 1538 1539 1539 1539 1539
1522 1524 1527 1528 1527 1527 1528 1528 1529 1529 1532 1541 1543 1540 1541 1540 1540 1554 1573 1578 1573 1558 1550 1553 1541 1525 1521 1509 1502 1507 1504 1503 1505 1503 1504 1505 1505 1507 1506 1507 1508 1508 1509 1509 1509 1510 1510 1511 1512 1512 1513 1514 1514 1515 1516 1517 1518 1519 1520 1521 1522 1523 1525 1526 1527 1529 1530 1531 1532 1532 1533 1534 1535 1535 1536 1536 1537 1537 1537 1537 1536 1536 1536 1536 1536 1535
1514 1522 1529 1528 1526 1529 1528 1528 1530 1529 1529 1535 1538 1536 1539 1544 1542 1542 1552 1566 1571 1557 1546 1549 1540 1528 1527 1514 1502 1504 1502 1498 1500 1501 1503 1504 1504 1505 1506 1506 1508 1508 1509 1510 1510 1510 1511 1511 1512 1512 1513 1513 1514 1515 1516 1517 1518 1519 1520 1521 1522 1523 1524 1525 1526 1527 1528 1529 1530 1531 1531 1532 1533 1534 1534 1535 1535 1535 1535 1535 1534 1534 1534 1533 1533 1532
1506 1516 1529 1531 1528 1529 1529 1528 1530 1532 1532 1531 1531 1533 1534 1538 1541 1543 1546 1550 1557 1558 1547 1545 1547 1539 1530 1518 1504 1500 1499 1496 1497 1500 1502 1503 1503 1504 1505 1506 1507 1507 1508 1509 1509 1510 1510 1511 1512 1512 1513 1513 1514 1515 1516 1517 1518 1519 1520 1521 1522 1523 1524 1525 1526 1527 1527 1528 1529 1530 1530 1531 1532 1533 1533 1533 1533 1532 1532 1532 1532 1531 1531 1530 1529 1528
1503 1509 1523 1532 1530 1529 1529 1527 1527 1530 1533 1533 1532 1535 1534 1534 1537 1540 1544 1542 1543 1552 1548 1541 1539 1528 1518 1517 1506 1497 1497 1497 1498 1500 1502 1503 1503 1503 1504 1505 1506 1506 1507 1507 1508 1509 1509 1510 1511 1512 1513 1513 1514 1515 1516 1517 1518 1519 1520 1521 1522 1523 1524 1524 1525 1526 1527 1528 1529 1530 1530 1531 1531 1531 1531 1530 1530 1530 1530 1529 1529 1528 1527 1527 1526 1525
1503 1505 1516 1530 1532 1529 1526 1524 1522 1523 1528 1531 1532 1535 1535 1538 1541 1539 1543 1546 1539 1542 1547 1543 1532 1515 1508 1511 1505 1498 1499 1499 1499 1500 1502 1503 1503 1503 1504 1504 1504 1505 1506 1506 1506 1507 1508 1509 1510 1511 1512 1513 1514 1515 1516 1517 1518 1519 1520 1521 1521 1522 1523 1523 1524 1525 1526 1528 1528 1529 1529 1529 1529 1529 1529 1528 1528 1528 1527 1526 1525 1525 1524 1523 1523 1522
1501 1504 1514 1528 1530 1525 1522 1522 1523 1522 1523 1523 1524 1527 1528 1531 1537 1536 1540 1549 1546 1540 1544 1546 1533 1512 1503 1505 1503 1501 1501 1500 1501 1500 1500 1502 1502 1502 1503 1503 1504 1504 1504 1505 1505 1506 1507 1508 1510 1511 1512 1513 1514 1514 1515 1516 1517 1518 1519 1520 1520 1521 1522 1522 1524 1525 1526 1527 1527 1527 1527 1527 1527 1526 1527 1527 1526 1525 1524 1523 1522 1521 1520 1520 1519 1519
1498 1505 1515 1525 1526 1524 1524 1526 1527 1525 1524 1524 1522 1523 1524 1524 1526 1525 1529 1540 1548 1548 1550 1554 1540 1510 1499 1504 1504 1503 1503 1501 1501 1500 1498 1499 1499 1501 1501 1501 1502 1502 1503 1504 1504 1505 1507 1507 1509 1511 1511 1512 1513 1513 1514 1515 1516 1517 1518 1519 1519 1520 1521 1522 1523 1524 1524 1525 1525 1525 1525 1524 1524 1524 1524 1524 1523 1522 1521 1520 1518 1517 1517 1517 1516 1516
1495 1499 1509 1520 1525 1524 1525 1525 1527 1527 1525 1524 1522 1522 1524 1523 1520 1521 1526 1531 1538 1543 1545 1552 1542 1510 1498 1505 1504 1502 1503 1501 1500 1499 1498 1499 1498 1499 1499 1499 1500 1501 1502 1503 1504 1505 1506 1507 1508 1509 1510 1511 1512 1513 1514 1514 1516 1517 1517 1518 1519 1520 1521 1521 1522 1522 1522 1522 1522 1522 1522 1522 1522 1522 1521 1521 1520 1519 1518 1516 1515 1514 1514 1514 1513 1513
1489 1493 1502 1517 1525 1526 1526 1527 1526 1525 1524 1520 1518 1521 1521 1522 1524 1527 1531 1531 1533 1535 1534 1537 1531 1508 1499 1504 1502 1501 1503 1499 1499 1500 1498 1499 1499 1498 1499 1500 1500 1501 1502 1503 1504 1505 1506 1506 1507 1508 1508 1510 1510 1512 1513 1514 1515 1516 1516 1518 1518 1518 1519 1519 1519 1520 1520 1520 1520 1520 1520 1519 1519 1518 1518 1518 1518 1516 1515 1514 1512 1512 1511 1511 1510 1510
1484 1489 1493 1503 1513 1517 1517 1515 1509 1508 1515 1517 1518 1520 1519 1519 1521 1521 1527 1530 1529 1533 1533 1525 1515 1504 1501 1503 1500 1500 1501 1499 1499 1499 1498 1498 1498 1499 1500 1501 1502 1503 1503 1504 1505 1505 1506 1506 1507 1507 1508 1509 1510 1511 1512 1513 1514 1515 1515 1516 1516 1516 1517 1516 1517 1517 1517 1517 1517 1517 1517 1516 1516 1515 1516 1516 1515 1514 1512 1511 1510 1509 1508 1508 1508 1507
1484 1487 1486 1487 1491 1492 1490 1490 1490 1492 1503 1510 1512 1515 1516 1517 1517 1517 1524 1526 1522 1531 1535 1519 1505 1503 1502 1502 1499 1498 1500 1499 1498 1497 1497 1498 1498 1500 1501 1502 1503 1503 1504 1505 1506 1506 1506 1506 1507 1508 1508 1509 1510 1510 1511 1512 1513 1513 1514 1514 1514 1514 1514 1514 1514 1514 1514 1514 1514 1514 1514 1513 1513 1513 1514 1513 1512 1511 1509 1508 1507 1506 1506 1505 1505 1504
1482 1484 1484 1482 1481 1480 1479 1484 1488 1489 1493 1500 1505 1511 1513 1515 1517 1517 1518 1514 1514 1527 1526 1509 1505 1506 1501 1499 1499 1497 1498 1499 1498 1497 1497 1498 1499 1500 1501 1501 1502 1503 1504 1505 1506 1506 1506 1506 1507 1508 1508 1508 1509 1509 1510 1511 1511 1511 1511 1511 1512 1512 1511 1511 1511 1511 1511 1511 1511 1511 1511 1511 1511 1511 1511 1510 1509 1508 1506 1505 1504 1504 1503 1503 1502 1501
1479 1480 1481 1482 1481 1480 1482 1487 1489 1487 1489 1495 1500 1506 1509 1513 1515 1513 1510 1506 1509 1516 1505 1495 1503 1504 1496 1497 1497 1495 1496 1496 1496 1497 1497 1498 1499 1499 1500 1501 1502 1503 1503 1504 1505 1505 1505 1505 1506 1507 1507 1507 1508 1508 1508 1508 1508 1508 1508 1509 1509 1508 1509 1509 1509 1509 1509 1509 1509 1509 1509 1509 1509 1508 1508 1507 1506 1504 1503 1502 1501 1501 1500 1500 1499 1498
1477 1476 1479 1483 1482 1482 1486 1490 1490 1488 1490 1495 1499 1502 1504 1508 1508 1506 1504 1501 1503 1504 1494 1494 1503 1497 1489 1495 1495 1493 1496 1496 1495 1498 1497 1497 1498 1498 1499 1500 1500 1502 1502 1502 1503 1504 1503 1504 1504 1505 1506 1506 1506 1506 1506 1506 1506 1506 1506 1506 1506 1506 1506 1506 1506 1507 1507 1507 1507 1507 1507 1506 1506 1505 1504 1504 1502 1501 1500 1499 1499 1498 1497 1496 1495 1494
1476 1477 1480 1483 1483 1484 1486 1489 1491 1491 1490 1492 1498 1502 1504 1506 1505 1502 1499 1497 1501 1503 1497 1500 1506 1495 1486 1491 1493 1492 1495 1494 1494 1496 1496 1497 1497 1497 1497 1498 1499 1500 1500 1501 1501 1501 1501 1502 1502 1503 1503 1503 1504 1504 1504 1504 1504 1504 1504 1504 1504 1504 1505 1505 1505 1505 1505 1505 1505 1504 1504 1504 1503 1502 1502 1500 1499 1498 1497 1496 1496 1495 1494 1493 1492 1491
1474 1479 1481 1482 1483 1483 1483 1488 1493 1495 1494 1494 1498 1502 1503 1502 1499 1496 1493 1493 1498 1501 1500 1506 1505 1490 1482 1487 1489 1489 1492 1493 1493 1493 1493 1494 1494 1494 1495 1496 1497 1498 1499 1499 1499 1499 1500 1500 1500 1500 1501 1501 1502 1502 1502 1502 1502 1502 1502 1503 1503 1503 1503 1503 1503 1503 1503 1503 1502 1502 1502 1501 1500 1500 1498 1497 1496 1495 1494 1494 1493 1492 1491 1490 1490 1489
1472 1474 1477 1481 1481 1481 1487 1491 1492 1495 1498 1496 1490 1488 1490 1491 1490 1492 1494 1493 1493 1494 1497 1499 1491 1478 1478 1486 1486 1486 1490 1490 1488 1488 1489 1490 1491 1492 1492 1493 1495 1496 1497 1497 1496 1496 1497 1497 1497 1498 1498 1499 1499 1499 1500 1500 1500 1501 1501 1501 1501 1501 1501 1501 1501 1501 1501 1500 1500 1499 1499 1498 1497 1496 1495 1494 1493 1492 1492 1491 1490 1489 1488 1487 1487 1486
1472 1470 1474 1478 1475 1481 1494 1495 1491 1495 1495 1483 1472 1470 1476 1483 1486 1490 1489 1486 1486 1487 1486 1485 1479 1474 1479 1483 1482 1483 1485 1485 1484 1485 1487 1488 1488 1489 1489 1490 1492 1493 1494 1495 1494 1494 1494 1494 1495 1495 1495 1496 1496 1497 1498 1498 1498 1499 1499 1499 1500 1499 1499 1499 1499 1499 1498 1497 1497 1496 1495 1494 1493 1493 1492 1491 1490 1489 1489 1488 1487 1486 1485 1484 1483 1482
1470 1470 1475 1477 1474 1484 1497 1494 1491 1493 1481 1466 1464 1466 1470 1474 1479 1482 1480 1476 1479 1483 1481 1480 1478 1474 1475 1476 1477 1479 1481 1482 1484 1484 1485 1486 1486 1486 1487 1488 1489 1489 1490 1491 1492 1492 1492 1492 1493 1493 1493 1494 1495 1495 1496 1497 1497 1498 1498 1498 1498 1498 1498 1498 1497 1497 1496 1494 1493 1492 1491 1491 1490 1489 1488 1488 1487 1486 1486 1485 1484 1483 1482 1481 1480 1479
1467 1469 1473 1476 1476 1487 1497 1490 1483 1478 1468 1462 1466 1467 1468 1473 1478 1481 1480 1475 1476 1479 1480 1479 1475 1471 1470 1472 1475 1478 1480 1482 1483 1483 1483 1484 1484 1484 1485 1485 1486 1487 1487 1488 1489 1490 1490 1491 1491 1492 1492 1493 1494 1495 1495 1496 1496 1497 1497 1497 1496 1496 1496 1495 1495 1494 1493 1492 1491 1490 1489 1488 1488 1487 1486 1485 1484 1484 1483 1482 1481 1480 1479 1477 1476 1475
1464 1466 1468 1471 1473 1479 1488 1485 1476 1471 1467 1462 1461 1461 1462 1466 1470 1475 1476 1471 1467 1470 1474 1473 1470 1468 1468 1469 1473 1477 1479 1480 1481 1481 1481 1482 1482 1482 1482 1483 1484 1485 1486 1487 1488 1489 1489 1490 1490 1491 1492 1492 1493 1494 1494 1495 1495 1495 1494 1494 1494 1493 1493 1493 1492 1492 1491 1490 1490 1489 1488 1487 1486 1485 1484 1483 1482 1481 1480 1479 1478 1476 1475 1473 1472 1470
1463 1463 1464 1467 1468 1469 1477 1480 1478 1477 1472 1459 1452 1454 1456 1457 1459 1465 1469 1465 1460 1461 1465 1466 1466 1465 1466 1468 1471 1475 1478 1479 1478 1478 1479 1480 1480 1480 1481 1481 1483 1484 1485 1486 1487 1488 1489 1489 1490 1490 1491 1492 1492 1493 1493 1493 1493 1492 1491 1491 1491 1491 1491 1490 1490 1490 1490 1489 1488 1487 1486 1485 1484 1483 1482 1481 1480 1479 1478 1477 1475 1474 1472 1470 1468 1466
1465 1465 1464 1466 1467 1468 1471 1473 1472 1471 1463 1451 1449 1453 1455 1455 1457 1464 1472 1467 1457 1456 1459 1461 1462 1463 1463 1466 1468 1471 1476 1477 1474 1475 1478 1479 1479 1480 1480 1481 1482 1483 1484 1485 1486 1487 1488 1488 1489 1490 1490 1491 1491 1490 1490 1490 1490 1489 1489 1489 1489 1489 1489 1489 1489 1488 1488 1488 1487 1486 1485 1483 1482 1481 1480 1479 1478 1477 1475 1474 1473 1471 1469 1467 1465 1462
1465 1466 1467 1467 1466 1465 1467 1468 1465 1460 1453 1449 1451 1452 1453 1454 1456 1466 1474 1465 1452 1453 1457 1457 1459 1460 1460 1463 1466 1469 1472 1471 1469 1473 1477 1477 1478 1480 1480 1481 1482 1483 1484 1485 1485 1486 1486 1487 1488 1488 1489 1489 1488 1488 1488 1488 1488 1488 1488 1488 1488 1487 1487 1487 1487 1487 1486 1486 1485 1484 1483 1482 1481 1479 1478 1476 1475 1474 1473 1471 1470 1468 1466 1464 1462 1459
1463 1465 1465 1464 1462 1462 1464 1464 1461 1455 1450 1449 1451 1451 1451 1455 1459 1463 1462 1454 1450 1454 1455 1454 1457 1458 1459 1462 1464 1465 1468 1468 1469 1472 1474 1476 1478 1479 1480 1481 1482 1482 1483 1484 1484 1485 1485 1486 1486 1486 1486 1486 1486 1487 1487 1487 1487 1487 1487 1487 1486 1486 1485 1485 1485 1484 1484 1483 1483 1482 1481 1480 1478 1477 1476 1474 1472 1471 1469 1468 1466 1464 1462 1460 1457 1455
1457 1460 1461 1460 1459 1459 1459 1461 1460 1454 1446 1445 1449 1451 1451 1454 1456 1454 1450 1450 1452 1453 1453 1454 1456 1457 1459 1461 1462 1463 1466 1468 1470 1472 1474 1476 1477 1478 1479 1480 1481 1482 1483 1483 1484 1484 1484 1484 1484 1484 1484 1484 1485 1485 1485 1485 1486 1485 1485 1485 1484 1484 1483 1483 1482 1482 1481 1481 1480 1479 1478 1477 1476 1474 1473 1471 1469 1467 1466 1464 1462 1460 1458 1455 1452 1450
1445 1451 1455 1454 1454 1456 1458 1460 1459 1449 1440 1440 1446 1449 1450 1448 1446 1444 1446 1451 1453 1452 1453 1455 1455 1456 1458 1460 1461 1464 1466 1468 1471 1473 1474 1476 1477 1478 1479 1480 1481 1482 1482 1482 1483 1484 1483 1483 1483 1483 1483 1483 1483 1483 1483 1484 1484 1483 1483 1483 1482 1482 1481 1480 1480 1479 1478 1477 1476 1476 1475 1474 1472 1471 1469 1468 1466 1464 1462 1460 1458 1456 1453 1451 1447 1444
1439 1442 1445 1444 1445 1449 1452 1450 1445 1438 1436 1438 1440 1442 1443 1442 1440 1441 1445 1448 1450 1451 1452 1453 1454 1456 1457 1457 1460 1463 1465 1468 1471 1472 1473 1475 1476 1477 1478 1479 1480 1481 1481 1482 1482 1482 1482 1483 1482 1482 1482 1482 1482 1482 1481 1481 1481 1481 1481 1480 1480 1480 1479 1478 1477 1476 1475 1474 1473 1472 1471 1470 1469 1468 1467 1465 1463 1461 1458 1456 1454 1451 1449 1446 1443 1439
1433 1433 1435 1435 1436 1439 1440 1438 1436 1436 1438 1438 1438 1438 1439 1440 1441 1442 1443 1445 1447 1449 1450 1451 1453 1455 1456 1457 1459 1462 1465 1467 1469 1470 1472 1474 1475 1476 1477 1478 1479 1479 1480 1480 1480 1480 1481 1481 1481 1481 1481 1480 1480 1480 1480 1479 1479 1479 1478 1478 1478 1477 1476 1475 1474 1473 1472 1471 1470 1469 1468 1467 1466 1465 1463 1462 1459 1456 1454 1451 1449 1446 1444 1441 1438 1434
1430 1430 1430 1430 1433 1436 1435 1435 1437 1438 1437 1437 1438 1439 1439 1440 1441 1442 1443 1444 1446 1447 1449 1451 1451 1453 1455 1457 1458 1461 1464 1466 1467 1469 1471 1471 1473 1474 1475 1475 1476 1477 1478 1478 1479 1479 1479 1479 1480 1480 1480 1480 1480 1479 1478 1478 1477 1477 1476 1476 1475 1475 1474 1473 1471 1470 1469 1468 1466 1465 1464 1462 1461 1459 1458 1456 1454 1452 1450 1447 1444 1441 1438 1435 1432 1429
1430 1431 1430 1431 1433 1434 1434 1434 1437 1437 1437 1437 1438 1439 1439 1440 1442 1443 1443 1444 1445 1447 1449 1451 1451 1453 1455 1456 1457 1459 1461 1463 1465 1467 1468 1469 1470 1471 1472 1473 1474 1474 1475 1476 1476 1477 1477 1478 1478 1478 1478 1478 1478 1477 1476 1476 1475 1474 1473 1472 1472 1471 1470 1469 1468 1466 1465 1463 1462 1460 1459 1456 1454 1452 1451 1450 1448 1446 1445 1442 1439 1436 1433 1430 1427 1424
1427 1429 1431 1432 1432 1433 1434 1436 1438 1437 1437 1437 1437 1437 1439 1439 1440 1442 1443 1444 1445 1447 1449 1450 1451 1452 1454 1455 1456 1457 1458 1461 1463 1464 1465 1467 1468 1468 1469 1470 1471 1472 1473 1473 1474 1474 1475 1475 1475 1475 1475 1475 1475 1474 1474 1473 1472 1471 1470 1469 1468 1467 1466 1465 1464 1462 1461 1459 1457 1455 1453 1452 1450 1447 1445 1444 1442 1440 1438 1436 1434 1431 1428 1426 1423 1419
1426 1427 1428 1430 1432 1434 1434 1436 1438 1438 1438 1438 1437 1436 1437 1438 1439 1441 1443 1444 1445 1446 1447 1449 1451 1452 1453 1455 1456 1457 1458 1460 1461 1463 1464 1465 1466 1467 1468 1468 1469 1470 1471 1471 1471 1472 1472 1472 1473 1473 1473 1472 1472 1472 1472 1471 1470 1469 1467 1466 1465 1463 1462 1461 1460 1458 1457 1455 1453 1451 1449 1447 1445 1443 1440 1438 1435 1434 1432 1430 1428 1424 1421 1420 1418 1414
1424 1425 1426 1429 1432 1430 1428 1429 1432 1433 1433 1433 1433 1434 1436 1438 1439 1440 1441 1443 1444 1445 1446 1447 1449 1451 1453 1454 1455 1457 1458 1459 1460 1462 1463 1464 1465 1466 1467 1467 1468 1468 1468 1469 1469 1469 1470 1470 1470 1470 1470 1470 1470 1469 1469 1468 1467 1466 1465 1463 1462 1460 1459 1457 1456 1455 1453 1452 1450 1448 1445 1443 1441 1438 1436 1433 1430 1427 1424 1423 1422 1419 1415 1413 1411 1409
1420 1420 1422 1424 1425 1423 1421 1423 1426 1427 1427 1428 1430 1432 1434 1436 1437 1439 1440 1441 1443 1444 1446 1447 1448 1449 1451 1452 1454 1455 1457 1458 1459 1460 1461 1462 1464 1464 1465 1466 1466 1466 1467 1467 1467 1467 1467 1468 1467 1467 1467 1467 1467 1467 1466 1465 1464 1463 1462 1461 1459 1457 1456 1454 1452 1451 1450 1448 1446 1444 1441 1438 1436 1433 1431 1428 1425 1421 1417 1414 1413 1412 1410 1407 1404 1402